Vertical_Velocity
-3 -8 -6 2 5 2 14 33 15 -1 -0 -9 -1 0 -0 -3 -3 -1 2 -2 -0 -0 -1 0 1 -1 -1 -1 -1 0 1 -2 -1 2 3 -7 2 -0 2 2 -0 -2 2 -0
9 -10 7 -8 -4 -8 2 -22 1 2 2 -8 -2 -4 -1 -1 -3 -1 1 -3 -1 -2 -1 -0 -1 -0 -1 -1 -1 -1 -0 0 -2 -3 -2 0 -3 -0 -1 1 0 -1 -2 -2
10 -3 3 1 7 -10 6 1 4 4 -0 -0 1 1 1 -2 -4 -4 -2 -2 1 -1 -1 -1 -2 -1 -0 -0 -0 -1 -1 -1 0 -1 -2 -2 -3 -1 -3 -1 -0 -1 -2 -0
4 4 5 3 -3 -2 10 8 -2 90 10 -3 -5 -2 1 2 -5 -5 -2 -2 -2 0 1 -2 3 -2 -0 0 1 0 -1 -2 -0 -3 -4 -0 -1 -0 0 -4 -3 -4 -3 -3
2 -2 -0 0 6 -0 21 1 46 -30 15 108 13 -1 2 2 -2 -5 -3 -5 -4 -4 0 -0 -2 -2 -2 -0 1 0 0 1 -0 2 -2 -1 1 2 -1 0 -0 2 5 -0
10 13 -3 -4 6 4 6 9 -18 -40 -1 48 -9 -7 -8 -8 -1 -3 -4 -6 -6 14 -5 -6 -1 -2 -1 -3 -2 -1 -1 1 1 0 1 -1 -1 -1 1 1 0 -1 -1 0
0 3 -6 -1 -5 -1 13 14 -2 -16 7 18 1 -27 3 4 -1 -5 -5 -3 -1 -2 -2 2 -1 1 1 -0 -1 -1 -2 -0 -0 0 1 -0 0 -2 4 3 -1 -3 -2 2
-3 2 -6 2 -7 16 7 -12 -19 -2 66 -3 13 -6 -2 7 -3 -6 -6 -2 -1 4 7 3 1 -1 -0 1 1 -1 -1 -1 -1 0 0 0 0 -1 -0 2 3 0 -1 -1
2 -9 4 -3 4 -5 -7 -36 30 -34 -0 -31 5 -1 -1 -0 -5 -6 -5 -6 -2 0 5 1 -2 -2 -1 -0 -1 -0 -1 -1 -1 -1 -0 0 0 -1 -1 -1 -1 -0 1 -0
8 -2 5 -5 2 -4 -1 -7 16 68 -23 26 3 2 -6 -6 -5 -5 -3 -2 -6 -3 -3 -1 -2 -1 -1 -0 -0 -2 -2 -1 0 -0 -2 -1 -1 -1 -1 -2 -4 -0 -2 -0
9 16 17 -2 -3 3 3 -3 5 -5 -25 70 -6 -1 -2 1 -7 -4 5 2 -3 -2 -2 -1 -0 -1 -2 -2 0 1 2 1 -0 -1 -1 1 0 0 -1 -0 1 1 -1 0
-14 10 2 -9 -6 0 30 11 -7 8 21 10 -4 -4 -4 -4 -3 -0 -2 -2 -4 -1 -1 -1 -1 -1 -1 -1 -2 -1 -0 0 -1 -2 -2 -0 -2 0 4 1 1 2 -2 1
-13 -1 23 1 -3 -6 2 24 3 -5 7 9 -37 0 -3 0 -0 1 -8 0 -1 -1 -1 -2 -1 -2 -3 -0 -2 -1 -2 -3 -0 0 0 -2 -0 -1 -5 -4 8 1 0 2
-10 -1 2 -7 -4 13 -12 6 -13 -26 1 7 -1 -10 -5 -5 -3 -1 -2 -3 -2 -2 -0 -1 -5 0 -1 -2 -0 -4 -2 -2 -1 -6 3 3 3 -4 1 2 -3 -2 -2 13
0 -7 15 -18 23 -10 -4 -14 24 13 29 37 -5 -4 0 -1 -2 -2 -2 -3 -1 -1 -1 -1 -4 -1 -1 4 1 2 -2 -2 -4 -1 -5 -9 -5 -1 2 0 -1 -6 -4 -9
2 -4 -16 -28 28 8 13 -8 -9 2 11 15 35 4 -3 -5 -1 -6 0 -2 -2 -4 -2 -0 -2 -1 -1 -0 -0 0 1 2 2 -1 -6 8 -2 -4 0 2 3 -3 -3 1
-1 0 9 -6 -6 -3 -6 21 -6 -1 -6 3 -2 15 -2 2 -5 -6 -2 -3 -1 0 0 -0 -0 -2 -1 -1 -1 -0 -2 -0 -1 6 0 -1 -1 -0 -6 -4 -1 2 2 6
4 1 0 41 -21 5 -8 -9 9 -4 -3 12 -6 2 -9 -3 -3 -0 -3 -3 -0 -1 -2 -2 -3 -2 -2 -1 0 -1 0 1 2 1 0 2 3 3 5 4 -1 -3 -2 -0
-1 8 -4 -2 2 2 -10 -0 -2 -10 7 -6 8 -10 -9 -1 -3 -3 -1 -2 -2 -2 -1 -1 -0 -2 -2 -2 -1 -1 -3 -2 -1 -1 1 2 1 3 3 4 5 3 1 -2
0 -2 -5 -6 4 -0 4 -10 -11 -1 -8 3 3 -13 -3 2 -5 -3 -1 -2 -3 -0 -4 -3 -4 -2 -1 -3 -3 -1 -1 -1 -1 -2 -2 -1 0 1 2 2 1 2 4 4
8 6 -8 -3 -7 -5 26 -1 -3 -2 -1 5 2 -9 -3 -8 -5 -4 -3 -2 -1 -1 -5 -2 0 -0 -0 -0 -0 -2 -2 -1 -1 -1 -1 -1 -2 -1 -2 -3 -2 -1 -0 -2
-5 6 16 -3 4 -12 1 21 12 -0 -9 4 -9 -6 -5 2 -3 1 -2 -1 -2 3 7 -3 -3 -2 -2 -2 -2 -1 -2 -1 -1 -1 -3 -4 -3 -4 -3 -1 -1 -3 -3 -4
-13 -13 -7 1 0 2 6 1 2 5 4 -2 5 -14 -4 3 0 -1 -1 -3 -3 -2 -2 1 0 0 -2 -2 -2 -2 -3 -2 -3 -2 -4 -2 -2 -1 -3 -4 -3 -3 -4 -3
-11 2 -7 0 -4 9 -8 -4 0 -4 -2 1 2 -11 -4 3 0 -0 -1 -1 -2 -3 -3 -3 -3 -2 -2 -2 -2 -1 -3 -3 -2 -1 -2 -2 -2 -1 -2 -4 -4 -2 -2 -3
3 -2 -3 6 7 7 8 -4 4 -10 3 -3 -0 -5 -4 2 -1 -1 -1 -1 -2 -1 -0 -1 -2 -4 -4 -4 -2 -2 -2 -4 -2 -4 -2 -3 -0 -2 -1 -3 -5 -5 -2 -2
-2 2 -7 20 -2 2 13 -4 -3 -5 0 -5 -1 -2 -3 -1 -0 0 -2 -2 -1 -1 -1 -2 -0 -3 -3 -3 -4 -5 -1 -1 -2 -4 -2 -3 1 -6 5 -8 -4 -4 -4 -4
Height
5918 5918 5918 5920 5918 5923 5924 5913 5925 5921 5919 5917 5920 5920 5920 5918 5917 5916 5915 5915 5914 5914 5913 5913 5913 5912 5911 5911 5910 5910 5911 5910 5911 5914 5917 5917 5918 5918 5919 5920 5920 5921 5923 5925
5920 5917 5925 5919 5922 5924 5930 5926 5927 5926 5924 5922 5922 5922 5922 5921 5919 5918 5918 5916 5916 5915 5915 5915 5915 5914 5913 5912 5912 5912 5911 5911 5911 5911 5914 5918 5920 5920 5921 5921 5921 5922 5923 5924
5919 5919 5925 5928 5932 5929 5931 5927 5933 5930 5927 5926 5926 5926 5925 5924 5922 5920 5919 5918 5918 5917 5917 5917 5916 5916 5915 5914 5914 5913 5912 5912 5912 5912 5912 5915 5917 5917 5918 5919 5920 5920 5921 5922
5922 5924 5927 5930 5931 5933 5932 5933 5932 5931 5928 5929 5928 5928 5927 5927 5925 5922 5921 5919 5918 5919 5921 5920 5920 5919 5917 5917 5915 5914 5914 5913 5912 5912 5913 5913 5914 5916 5917 5918 5919 5920 5920 5921
5922 5925 5926 5930 5931 5933 5936 5936 5934 5922 5925 5923 5929 5933 5930 5929 5928 5926 5924 5922 5921 5920 5922 5922 5921 5921 5920 5919 5918 5916 5915 5915 5914 5914 5913 5914 5914 5915 5917 5918 5918 5919 5920 5920
5921 5927 5926 5928 5931 5930 5931 5931 5918 5920 5924 5928 5931 5932 5932 5929 5929 5928 5926 5925 5926 5929 5926 5924 5922 5922 5921 5920 5919 5918 5917 5915 5914 5914 5913 5914 5915 5916 5916 5917 5917 5917 5917 5917
5918 5924 5926 5927 5928 5931 5933 5933 5928 5926 5920 5931 5933 5929 5936 5934 5933 5931 5930 5930 5930 5930 5930 5929 5927 5925 5924 5923 5921 5919 5918 5917 5916 5914 5914 5915 5914 5915 5916 5916 5915 5915 5915 5915
5916 5922 5923 5925 5927 5932 5930 5931 5927 5927 5934 5935 5935 5935 5935 5936 5935 5932 5932 5932 5932 5932 5934 5932 5930 5928 5927 5925 5923 5921 5920 5919 5918 5917 5916 5915 5915 5915 5916 5917 5917 5917 5917 5915
5917 5920 5925 5925 5927 5931 5927 5929 5931 5920 5929 5934 5936 5936 5935 5935 5934 5935 5935 5933 5935 5936 5937 5935 5932 5931 5929 5928 5926 5924 5922 5920 5919 5918 5918 5917 5916 5916 5915 5915 5914 5913 5913 5911
5918 5922 5924 5925 5928 5931 5931 5932 5932 5935 5937 5939 5937 5937 5937 5937 5938 5939 5938 5937 5935 5935 5934 5933 5932 5932 5931 5930 5928 5926 5924 5923 5922 5921 5919 5918 5917 5916 5915 5914 5913 5913 5911 5910
5911 5923 5926 5925 5925 5931 5934 5934 5936 5937 5935 5938 5937 5937 5938 5939 5939 5940 5942 5941 5937 5935 5934 5934 5934 5933 5931 5930 5929 5927 5925 5924 5923 5921 5920 5919 5918 5917 5915 5914 5912 5911 5910 5908
5905 5919 5924 5924 5925 5927 5935 5937 5939 5938 5940 5933 5939 5939 5937 5939 5942 5941 5940 5942 5939 5937 5935 5934 5933 5933 5932 5930 5928 5927 5925 5923 5922 5920 5919 5917 5916 5915 5915 5913 5911 5909 5906 5904
5904 5912 5920 5923 5925 5927 5929 5935 5933 5936 5938 5940 5933 5939 5936 5937 5939 5940 5939 5940 5939 5937 5936 5934 5934 5932 5931 5929 5927 5926 5924 5922 5921 5919 5917 5914 5913 5911 5909 5907 5907 5903 5901 5897
5902 5909 5916 5922 5925 5928 5928 5930 5929 5932 5936 5941 5936 5935 5935 5933 5936 5938 5938 5938 5937 5937 5937 5935 5931 5932 5930 5928 5926 5923 5921 5919 5917 5914 5913 5911 5908 5905 5902 5901 5897 5895 5892 5889
5898 5904 5911 5910 5925 5926 5927 5930 5935 5932 5930 5937 5936 5935 5933 5932 5935 5935 5936 5935 5936 5936 5935 5933 5930 5929 5927 5925 5922 5921 5917 5915 5912 5911 5907 5905 5904 5901 5897 5894 5891 5887 5882 5877
5895 5900 5902 5908 5919 5924 5928 5929 5932 5935 5938 5939 5939 5935 5930 5933 5934 5933 5935 5934 5934 5933 5932 5931 5928 5926 5924 5921 5919 5917 5913 5911 5908 5903 5900 5900 5896 5894 5891 5887 5882 5877 5873 5870
5891 5897 5905 5906 5914 5919 5923 5928 5930 5932 5934 5938 5937 5930 5929 5932 5932 5932 5932 5933 5932 5931 5930 5929 5926 5924 5922 5918 5915 5913 5910 5907 5904 5900 5896 5892 5888 5886 5884 5881 5876 5870 5865 5861
5888 5893 5901 5908 5908 5915 5919 5923 5928 5930 5931 5935 5930 5929 5926 5928 5930 5930 5930 5930 5929 5928 5927 5925 5923 5921 5918 5915 5912 5909 5906 5903 5900 5896 5892 5887 5883 5878 5874 5871 5868 5864 5858 5853
5883 5891 5896 5903 5908 5915 5916 5920 5924 5926 5928 5928 5928 5920 5921 5926 5926 5926 5926 5926 5926 5925 5923 5922 5920 5917 5915 5911 5908 5905 5901 5898 5894 5890 5886 5881 5877 5872 5867 5862 5856 5851 5848 5844
5879 5886 5893 5898 5905 5909 5914 5915 5917 5919 5922 5923 5923 5917 5920 5923 5920 5923 5922 5922 5922 5921 5919 5918 5916 5913 5910 5906 5902 5899 5896 5892 5889 5885 5880 5875 5870 5866 5862 5856 5851 5846 5841 5837
5875 5883 5887 5894 5898 5904 5908 5909 5912 5915 5922 5917 5918 5916 5915 5916 5918 5917 5917 5917 5917 5916 5914 5913 5911 5908 5905 5901 5897 5894 5890 5886 5883 5878 5873 5868 5863 5858 5853 5848 5843 5838 5833 5828
5868 5875 5884 5890 5894 5899 5901 5905 5905 5909 5911 5913 5911 5911 5909 5914 5913 5913 5913 5913 5913 5912 5911 5907 5905 5902 5899 5895 5891 5887 5883 5879 5875 5870 5865 5860 5855 5850 5846 5840 5835 5831 5826 5822
5863 5868 5876 5885 5891 5895 5894 5900 5902 5904 5905 5908 5908 5904 5908 5909 5909 5909 5909 5908 5908 5906 5905 5903 5900 5897 5893 5889 5885 5881 5877 5872 5867 5862 5858 5853 5848 5843 5838 5833 5827 5823 5819 5815
5856 5864 5871 5879 5885 5890 5888 5892 5897 5896 5898 5903 5902 5900 5903 5906 5905 5905 5905 5904 5903 5901 5899 5897 5894 5891 5887 5882 5878 5874 5869 5865 5860 5856 5851 5846 5841 5836 5830 5825 5821 5817 5814 5810
5852 5857 5864 5874 5877 5883 5885 5886 5889 5889 5894 5896 5898 5897 5898 5901 5900 5901 5900 5899 5898 5896 5894 5891 5888 5885 5881 5876 5872 5868 5863 5858 5854 5849 5845 5840 5835 5830 5825 5821 5816 5812 5809 5806
5846 5853 5860 5870 5870 5871 5877 5881 5883 5886 5888 5889 5892 5892 5894 5895 5896 5895 5894 5894 5893 5890 5888 5885 5881 5878 5874 5869 5865 5861 5856 5852 5847 5842 5838 5833 5830 5826 5822 5816 5812 5808 5805 5801